Tracking 31027 objects as of 19-Jul-2025
HD Live streaming from Space Station
objects crossing your sky now

TIANMU-1 07

Track TIANMU-1 07 now!
10-day predictions


NORAD ID: 57399
Int'l Code: 2023-101A
Perigee: 494.4 km
Apogee: 498.6 km
Inclination: 97.3 °
Period: 94.4 minutes
Semi major axis: 6867 km
RCS: Unknown
Launch date: July 20, 2023
Source: People's Republic of China (PRC)
Launch site: Jiuquan Satellite Launch Center, China (JSC)
Your satellite tracking list
Your tracking list is empty




NASA's NSSDC Master Catalog

Two Line Element Set (TLE):
1 57399U 23101A   25199.83755986  .00005020  00000-0  20109-3 0  9999
2 57399  97.3090 253.0145 0003052 214.7746 145.3293 15.25479204110743
Source of the keplerian elements: AFSPC